sat.trackr.live / text

‹ back to catalog

STARLINK-33603

NORAD 63282 · 2025-053T

PAYLOAD ACTIVE UNKNOWN

§ Identity

Operator
Country
US
Launch date
2025-03-15
Launch site
AFETR
Launch vehicle
Mass (kg)
RCS (m²)

Purposes: comms

External: N2YO · Heavens-Above · Gunter

§ Orbital elements

Epoch: 2026-09-20T05:43:54.202656Z

Period
94.27 min
Inclination
42.9995°
Eccentricity
0.0002458
Mean motion
15.27581086 rev/d
Perigee alt
481.4 km
Apogee alt
484.7 km
Semi-major
6,861.2 km
B*
2.8481e-4
RAAN
223.3568°
Arg perigee
255.4136°
Mean anomaly
104.6443°
Rev number
8,594

§ Raw data

STARLINK-336031 63282U 25053T   26263.23882179  .00007584  00000+0  28481-3 0  99942 63282  42.9995 223.3568 0002458 255.4136 104.6443 15.27581086 85946

JSON: /api/v1/satellites/63282 · /tle

For live sub-satellite position, see the globe view (requires WebGL).

§ Visibility from observer

Set your observer location to see the next 7 days of passes ≥ 10°. The values pass through the URL so the page stays shareable.

No JS? Fill the form by hand. The geolocation button needs JavaScript.